This is the latest recevied weather packets stored in our database for station/object K6CED. If no packets are shown the sender has not sent any weather packets the latest 10 day(s).
| Time | Temp. | Humidity | Pressure | Rain* | Wind** | Luminosity | Snow |
|---|---|---|---|---|---|---|---|
| 1787609569 | 38.89° C | 27% | 1015 hPa | 0 mm | - | 740 W/m² | - |
| 1787609269 | 38.89° C | 26% | 1015 hPa | 0 mm | - | 718 W/m² | - |
| 1787608963 | 38.89° C | 25% | 1015 hPa | 0 mm | - | 313 W/m² | - |
| 1787608658 | 39.44° C | 24% | 1015 hPa | 0 mm | - | 376 W/m² | - |
| 1787608353 | 39.44° C | 24% | 1015.1 hPa | 0 mm | - | 365 W/m² | - |
| 1787608050 | 39.44° C | 23% | 1015 hPa | 0 mm | - | 817 W/m² | - |
| 1787607746 | 38.89° C | 23% | 1015.1 hPa | 0 mm | - | 850 W/m² | - |
| 1787607443 | 38.89° C | 22% | 1015.3 hPa | 0 mm | - | 330 W/m² | - |
| 1787607139 | 38.89° C | 22% | 1015.3 hPa | 0 mm | - | 441 W/m² | - |
| 1787606834 | 38.89° C | 22% | 1015.1 hPa | 0 mm | - | 277 W/m² | - |
| 1787606532 | 38.89° C | 20% | 1015.4 hPa | 0 mm | - | 282 W/m² | - |
| 1787606232 | 38.89° C | 20% | 1015.7 hPa | 0 mm | - | 267 W/m² | - |
| 1787605931 | 39.44° C | 19% | 1015.7 hPa | 0 mm | - | 233 W/m² | - |
| 1787605630 | 40.56° C | 18% | 1015.7 hPa | 0 mm | - | 410 W/m² | - |
| 1787605326 | 40.56° C | 18% | 1015.6 hPa | 0 mm | - | 467 W/m² | - |
| 1787605021 | 40° C | 19% | 1015.7 hPa | 0 mm | - | 905 W/m² | - |
| 1787604721 | 40° C | 19% | 1015.8 hPa | 0 mm | - | 590 W/m² | - |
| 1787604416 | 39.44° C | 19% | 1015.7 hPa | 0 mm | - | 811 W/m² | - |
| 1787604116 | 40° C | 19% | 1016 hPa | 0 mm | - | 769 W/m² | - |
| 1787603815 | 39.44° C | 19% | 1016 hPa | 0 mm | - | 752 W/m² | - |
| 1787603505 | 38.89° C | 19% | 1015.9 hPa | 0 mm | - | 750 W/m² | - |
| 1787603200 | 38.89° C | 18% | 1016.1 hPa | 0 mm | - | 759 W/m² | - |
| 1787602897 | 39.44° C | 21% | 1016.3 hPa | 0 mm | - | 764 W/m² | - |
| 1787602591 | 39.44° C | 20% | 1016.4 hPa | 0 mm | - | 776 W/m² | - |
| 1787602287 | 39.44° C | 20% | 1016.1 hPa | 0 mm | - | 787 W/m² | - |
* Rain latest hour (hover to see other rain measurements)
** Current wind speed in m/s (hover to see current wind gust speed)